Weather History for Hyannis, MA

Change the Weather History Date:

Sunday, February 16, 2014

  Actual Average Record
Temperature  
Mean Temperature 28 °F -  
Max Temperature 32 °F 38 °F 62 °F (1954)
Min Temperature 23 °F 22 °F -9 °F (1943)
Degree Days  
Heating Degree Days 38    
Moisture  
Dew Point 21 °F    
Average Humidity 75    
Maximum Humidity 100    
Minimum Humidity 54    
Precipitation  
Precipitation 0.03 in - - ()
Sea Level Pressure  
Sea Level Pressure 29.65 in    
Wind  
Wind Speed 17 mph (WNW)    
Max Wind Speed 29 mph    
Max Gust Speed 44 mph    
Visibility 8 miles    
Events Fog , Snow    
Averages and records for this station are not official NWS values.
T = Trace of Precipitation, MM = Missing Value Source: NWS Daily Summary

Daily Weather History Graph

Daily Weather History Graph

Search for Another Location

Airport:

Trip Planner

Search our weather history database for the weather conditions in past years. The results will help you decide how hot, cold, wet, or windy it might be!

Date:

Astronomy

Feb. 16, 2014 Rise Set
Actual Time 6:35 AM EST 5:15 PM EST
Civil Twilight 6:06 AM EST 5:44 PM EST
Nautical Twilight 5:34 AM EST 6:16 PM EST
Astronomical Twilight 5:02 AM EST 6:48 PM EST
Moon 7:11 PM EST (2/16) 7:01 AM EST (2/16)
Length of Visible Light 11h 37m
Length of Day
10h 40m
Full, 97% of the Moon is Illuminated
Feb 16
Full
Feb 22
Last Quarter
Mar 1
New
Mar 8
First Quarter
Mar 16
Full

Hourly Weather History & Observations

Time (EST) Temp. Windchill Dew Point Humidity Pressure Visibility Wind Dir Wind Speed Gust Speed Precip Events Conditions
12:03 AM 32.0 °F 17.9 °F 30.9 °F 96% 29.26 in 0.5 mi NNW 28.8 mph 43.7 mph 0.01 in Fog Fog
12:56 AM 30.9 °F 19.1 °F 30.0 °F 96% 29.30 in 0.5 mi NNW 18.4 mph 41.4 mph 0.02 in Fog , Snow Snow
1:36 AM 30.9 °F 18.4 °F 30.9 °F 100% 29.33 in 1.0 mi NNW 20.7 mph 35.7 mph 0.01 in Snow Light Snow
1:56 AM 30.9 °F 18.4 °F 30.9 °F 100% 29.35 in 1.2 mi NNW 20.7 mph 41.4 mph 0.01 in Snow Light Snow
2:08 AM 30.9 °F 18.1 °F 30.9 °F 100% 29.37 in 1.5 mi NNW 21.9 mph 36.8 mph 0.00 in Snow Light Snow
2:33 AM 30.9 °F 18.4 °F 30.0 °F 96% 29.39 in 2.0 mi NW 20.7 mph 34.5 mph 0.00 in Snow Light Snow
2:37 AM 30.9 °F 18.4 °F 30.0 °F 96% 29.40 in 1.8 mi NW 20.7 mph 33.4 mph 0.00 in Snow Light Snow
2:56 AM 30.9 °F 19.4 °F 30.0 °F 96% 29.42 in 4.0 mi NW 17.3 mph 31.1 mph 0.00 in Snow Light Snow
3:45 AM 28.9 °F 17.3 °F 24.1 °F 82% 29.47 in 9.0 mi NW 16.1 mph 29.9 mph 0.00 in   Mostly Cloudy
3:56 AM 28.9 °F 16.9 °F 23.0 °F 78% 29.49 in 9.0 mi WNW 17.3 mph 28.8 mph 0.00 in   Mostly Cloudy
4:56 AM 27.0 °F 12.8 °F 19.0 °F 72% 29.54 in 10.0 mi WNW 21.9 mph 31.1 mph 0.00 in   Clear
5:56 AM 25.0 °F 12.6 °F 17.1 °F 72% 29.59 in 10.0 mi WNW 15.0 mph 28.8 mph N/A   Clear
6:56 AM 23.0 °F 10.6 °F 15.1 °F 72% 29.65 in 10.0 mi WNW 13.8 mph 29.9 mph N/A   Clear
7:56 AM 24.1 °F 11.5 °F 15.1 °F 69% 29.69 in 10.0 mi WNW 15.0 mph 27.6 mph N/A   Clear
8:56 AM 25.0 °F 13.1 °F 16.0 °F 69% 29.72 in 10.0 mi West 13.8 mph 20.7 mph N/A   Clear
9:56 AM 27.0 °F 15.2 °F 17.1 °F 66% 29.74 in 10.0 mi West 15.0 mph 20.7 mph N/A   Clear
10:56 AM 28.0 °F 18.1 °F 18.0 °F 66% 29.75 in 10.0 mi West 11.5 mph 17.3 mph N/A   Clear
11:56 AM 30.0 °F 18.3 °F 19.0 °F 64% 29.76 in 10.0 mi West 17.3 mph 25.3 mph N/A   Clear
12:56 PM 30.9 °F 22.2 °F 19.9 °F 64% 29.76 in 10.0 mi West 10.4 mph 19.6 mph N/A   Clear
1:56 PM 30.9 °F 20.7 °F 18.0 °F 59% 29.77 in 10.0 mi WSW 13.8 mph - N/A   Clear
2:56 PM 32.0 °F 24.8 °F 17.1 °F 54% 29.79 in 10.0 mi WNW 8.1 mph 18.4 mph N/A   Clear
3:56 PM 30.9 °F 23.5 °F 17.1 °F 57% 29.80 in 10.0 mi West 8.1 mph - N/A   Clear
4:56 PM 28.0 °F 22.8 °F 18.0 °F 66% 29.82 in 10.0 mi WNW 4.6 mph - N/A   Clear
5:56 PM 28.0 °F 22.8 °F 17.1 °F 63% 29.85 in 10.0 mi WNW 4.6 mph - N/A   Scattered Clouds
6:56 PM 27.0 °F 21.6 °F 17.1 °F 66% 29.86 in 10.0 mi West 4.6 mph - N/A   Scattered Clouds
7:56 PM 27.0 °F 20.5 °F 17.1 °F 66% 29.87 in 10.0 mi WNW 5.8 mph - N/A   Overcast
8:56 PM 27.0 °F 18.7 °F 17.1 °F 66% 29.88 in 10.0 mi West 8.1 mph - N/A   Overcast
9:56 PM 26.1 °F 18.4 °F 16.0 °F 66% 29.91 in 10.0 mi West 6.9 mph - N/A   Overcast
10:56 PM 25.0 °F 18.1 °F 14.0 °F 63% 29.91 in 10.0 mi WNW 5.8 mph - N/A   Overcast
11:56 PM 24.1 °F 16.0 °F 12.9 °F 62% 29.93 in 10.0 mi WNW 6.9 mph - N/A   Overcast